Flag for Tanzania

Past Weather in Mwanza, Tanzania — Yesterday and Last 2 Weeks

Now
84 °F

Passing clouds.


Feels Like: 83 °F
Forecast: 81 / 69 °F
Wind: 10 mph from Northeast

Location: Mwanza Airport
Current Time: Sep 19, 2020 at 4:31:40 pm
Latest Report: Sep 19, 2020 at 3:00 pm
Visibility: N/A
Pressure29.92 "Hg(26.28 "Hg at 1146m altitude)
Humidity: 37%
Dew Point: 55 °F
Location of MwanzaLocation

Past Weather in Mwanza — Graph

°F

Mwanza Temperature Yesterday

Maximum temperature yesterday: 90 °F (at 1:00 pm)
Minimum temperature yesterday: 64 °F (at 7:00 am)
Average temperature yesterday: 77 °F

High & Low Weather Summary for the Past Weeks

 TemperatureHumidityPressure
High90 °F (Sep 18, 1:00 pm)100% (Sep 15, 11:00 pm)30.09 "Hg (Sep 15, 11:00 pm)
Low63 °F (Sep 13, 6:00 am)26% (Sep 18, 1:00 pm)29.83 "Hg (Sep 17, 12:00 pm)
Average74 °F67%29.99 "Hg
* Reported Sep 4 3:00 pm — Sep 19 3:00 pm, Mwanza. Weather by CustomWeather, © 2020

Note: Actual official high and low records may vary slightly from our data, if they occured in-between our weather recording intervals... More about our weather records

Mwanza Weather History for the Previous 24 Hours

Scroll right to see more
 ConditionsComfort  
Time TempWeatherWind HumidityBarometerVisibility
3:00 pm
Sat, Sep 19
84 °FPassing clouds.10 mph37%29.92 "HgN/A
2:00 pm86 °FPassing clouds.16 mph35%29.95 "HgN/A
12:00 pm84 °FPassing clouds.12 mph37%30.01 "HgN/A
11:00 am82 °FSunny.14 mph40%30.04 "Hg10 mi
10:00 am81 °FSunny.17 mph39%30.04 "Hg10 mi
9:00 am77 °FSunny.18 mph44%30.04 "Hg10 mi
8:00 am70 °FSunny.7 mph53%30.04 "Hg10 mi
7:00 am66 °FSunny.10 mph56%30.01 "Hg10 mi
6:00 am64 °FPassing clouds.10 mph56%30.01 "HgN/A
4:00 am64 °FMild.6 mph94%29.98 "HgN/A
2:00 am66 °FClear.No wind88%29.98 "Hg10 mi
9:00 pm
Fri, Sep 18
75 °FSmoke.6 mph74%29.95 "HgN/A
8:00 pm77 °FClear.6 mph65%29.92 "Hg10 mi
7:00 pm79 °FClear.6 mph61%29.89 "Hg10 mi
6:00 pm82 °FPassing clouds.7 mph45%29.89 "HgN/A
5:00 pm82 °FPassing clouds.12 mph45%29.89 "HgN/A
4:00 pm82 °FPassing clouds.14 mph45%29.92 "HgN/A
Weather by CustomWeather, © 2020

See weather overview